Regional Weather Roundup
Issued by NWS

Home | Current Version | Previous Version | Graphics & Text | Print | Product List | Glossary Off
Versions: 1 2 3 4 5 6 7 8 9 10 11 12 13 14 15 16 17 18 19 20 21 22 23 24 25 26 27 28 29 30 31 32 33 34 35 36 37 38 39 40 41 42 43 44 45 46 47 48 49 50

000
ASUS43 KMKX 050621
RWRWI

WISCONSIN REGIONAL WEATHER ROUNDUP
NATIONAL WEATHER SERVICE MILWAUKEE/SULLIVAN WI
100 AM CDT TUE MAY 05 2015

NOTE: "FAIR" INDICATES FEW OR NO CLOUDS BELOW 12,000 FEET WITH NO
SIGNIFICANT WEATHER AND/OR OBSTRUCTIONS TO VISIBILITY.

WIZ001-002-006>008-014>016-023>028-050700-
NORTHWEST WISCONSIN

CITY           SKY/WX    TMP DP  RH WIND       PRES   REMARKS
SUPERIOR ARPT  CLEAR     36  31  84 CALM      30.25R
6HR MIN TEMP:  33; 6HR MAX TEMP:  66;

ASHLAND        CLEAR     38  36  92 SW3       30.26R
6HR MIN TEMP:  38; 6HR MAX TEMP:  63;

HAYWARD        CLEAR     39  33  79 CALM      30.24S
6HR MIN TEMP:  39; 6HR MAX TEMP:  67;

SIREN          CLEAR     38  31  76 CALM      30.23R
6HR MIN TEMP:  37; 6HR MAX TEMP:  66;

CUMBERLAND     CLEAR     48  27  43 NE5       30.23R
RICE LAKE      CLEAR     49  29  46 CALM      30.24R
6HR MIN TEMP:  47; 6HR MAX TEMP:  67;

CHETEK         CLEAR     54  27  35 E3        30.23R
6HR MIN TEMP:  50; 6HR MAX TEMP:  67;

LADYSMITH      CLEAR     51  22  32 E5        30.25R
6HR MIN TEMP:  51; 6HR MAX TEMP:  66;

EAU CLAIRE     PTCLDY    49  36  61 NE6       30.21R
6HR MIN TEMP:  45; 6HR MAX TEMP:  68;

MENOMONIE      PTCLDY    52  38  60 CALM      30.21R
6HR MIN TEMP:  51; 6HR MAX TEMP:  68;

NEW RICHMOND   CLEAR     47  32  57 CALM      30.22R
6HR MIN TEMP:  46; 6HR MAX TEMP:  68;

OSCEOLA        CLEAR     44  36  74 CALM      30.24R
6HR MIN TEMP:  44; 6HR MAX TEMP:  67;

$$

WIZ003>005-009-010-017-018-050700-
NORTH CENTRAL WISCONSIN

CITY           SKY/WX    TMP DP  RH WIND       PRES   REMARKS
MANITOWISH WTR CLEAR     39  30  71 CALM      30.26S
6HR MIN TEMP:  35; 6HR MAX TEMP:  60;

ARBOR VITAE    CLEAR     42  31  65 CALM      30.26S
6HR MIN TEMP:  42; 6HR MAX TEMP:  62;

WOODRUFF       CLEAR     42  31  65 CALM      30.26S
6HR MIN TEMP:  42; 6HR MAX TEMP:  62;

RHINELANDER    CLEAR     44  35  70 CALM      30.27S
6HR MIN TEMP:  44; 6HR MAX TEMP:  65;

EAGLE RIVER    CLEAR     39  32  77 CALM      30.27S
6HR MIN TEMP:  38; 6HR MAX TEMP:  62;

LAND O LAKES   CLEAR     35  32  90 CALM      30.28S
6HR MIN TEMP:  34; 6HR MAX TEMP:  62;

PHILLIPS       CLEAR     43  26  52 E3        30.25R
6HR MIN TEMP:  40; 6HR MAX TEMP:  63;

TOMAHAWK       PTCLDY    38  32  77 CALM      30.28R
MEDFORD        PTCLDY    45  35  69 E9        30.25R
6HR MIN TEMP:  45; 6HR MAX TEMP:  65;

MERRILL        PTCLDY    47  40  76 E3        30.26S
6HR MIN TEMP:  47; 6HR MAX TEMP:  66;

$$

WIZ029-030-035-036-043>047-050700-
CENTRAL WISCONSIN

CITY           SKY/WX    TMP DP  RH WIND       PRES   REMARKS
WAUSAU         PTCLDY    50  38  63 E8        30.24R
6HR MIN TEMP:  50; 6HR MAX TEMP:  67;

MOSINEE        MOCLDY    46  39  76 E7        30.25S
MARSHFIELD     MOCLDY    51  41  68 E9        30.23R
6HR MIN TEMP:  51; 6HR MAX TEMP:  66;

STEVENS POINT  MOCLDY    49  37  64 E5        30.25S
6HR MIN TEMP:  49; 6HR MAX TEMP:  66;

WAUPACA        CLOUDY    53  40  62 CALM      30.25S
6HR MIN TEMP:  52; 6HR MAX TEMP:  72;

WAUTOMA        CLOUDY    53  42  66 CALM      30.24R
6HR MIN TEMP:  53; 6HR MAX TEMP:  71;

WISC RAPIDS    MOCLDY    53  39  59 E7        30.24R
6HR MIN TEMP:  52; 6HR MAX TEMP:  68;

CAMP DOUGLAS   CLOUDY    54  46  74 E8        30.20R
6HR MIN TEMP:  46; 6HR MAX TEMP:  68;

$$

WIZ011>013-019>022-031-037>040-048>050-050700-
NORTHEAST WISCONSIN

CITY           SKY/WX    TMP DP  RH WIND       PRES   REMARKS
ANTIGO         PTCLDY    47  36  67 E7        30.27S
SHAWANO        MOCLDY    52  38  58 E9        30.27S
6HR MIN TEMP:  52; 6HR MAX TEMP:  64;

OCONTO         MOCLDY    49  37  62 NE6       30.27S
6HR MIN TEMP:  48; 6HR MAX TEMP:  58;

STURGEON BAY   MOCLDY    46  32  57 NE9       30.29F
6HR MIN TEMP:  46; 6HR MAX TEMP:  54;

GREEN BAY      CLOUDY    51  36  56 NE10      30.25S
6HR MIN TEMP:  50; 6HR MAX TEMP:  61;

MANITOWOC      CLOUDY    51  31  46 NE6       30.25R
6HR MIN TEMP:  50; 6HR MAX TEMP:  58;

APPLETON       MOCLDY    52  34  50 NE7       30.24S
CLINTONVILLE   MOCLDY    48  37  66 NE7       30.25F
OSHKOSH        CLOUDY    55  35  47 E8        30.23R
6HR MIN TEMP:  54; 6HR MAX TEMP:  63;

$$

WIZ032>034-041-042-053>061-050700-
SOUTHWEST WISCONSIN

CITY           SKY/WX    TMP DP  RH WIND       PRES   REMARKS
LA CROSSE      CLOUDY    57  47  69 CALM      30.17R
6HR MIN TEMP:  55; 6HR MAX TEMP:  69;

SPARTA         CLOUDY    46  41  81 CALM      30.19S
6HR MIN TEMP:  46; 6HR MAX TEMP:  68;

VIROQUA        CLOUDY    56  41  57 E7        30.18R
6HR MIN TEMP:  55; 6HR MAX TEMP:  65;

BOSCOBEL       CLOUDY    64  41  42 E6        30.16R
6HR MIN TEMP:  63; 6HR MAX TEMP:  73;

PRAIRIE DU CHI DRIZZLE   63  54  72 E9        30.14R
6HR MIN TEMP:  63; 6HR MAX TEMP:  71;

PLATTEVILLE    CLOUDY    54  47  79 E16       30.15F
6HR MIN TEMP:  54; 6HR MAX TEMP:  70; 6HR PCP:  0.01;

$$

WIZ056-057-062-063-064-067-068-050700-
SOUTH CENTRAL WISCONSIN

CITY           SKY/WX    TMP DP  RH WIND       PRES   REMARKS
REEDSBURG      CLOUDY    57  37  47 E5        30.19S
6HR MIN TEMP:  57; 6HR MAX TEMP:  70;

BARABOO/DELLS  CLOUDY    56  36  48 E3        30.20S
6HR MIN TEMP:  56; 6HR MAX TEMP:  69;

LONE ROCK      CLOUDY    60  42  51 E6        30.18R
6HR MIN TEMP:  60; 6HR MAX TEMP:  70;

MINERAL POINT  CLOUDY    57  39  51 E9        30.16F
MADISON        CLOUDY    58  37  45 E7        30.19S
6HR MIN TEMP:  58; 6HR MAX TEMP:  69;

MIDDLETON      CLOUDY    60  35  40 SE7       30.20S
6HR MIN TEMP:  60; 6HR MAX TEMP:  71;

WATERTOWN      CLOUDY    55  39  55 E5        30.20S
6HR MIN TEMP:  54; 6HR MAX TEMP:  64;

MONROE         DRIZZLE   52  45  76 E7        30.19F
JANESVILLE     DRIZZLE   55  39  54 E3        30.19S
$$

WIZ051-052-058>065-066-070>072-050700-
SOUTHEAST WISCONSIN

CITY           SKY/WX    TMP DP  RH WIND       PRES   REMARKS
MILWAUKEE      CLOUDY    51  34  52 N3        30.21S
6HR MIN TEMP:  50; 6HR MAX TEMP:  55;

WAUKESHA       CLOUDY    50  34  53 NE5       30.22S
MILWAUKEE/TIMM CLOUDY    52  32  46 NE3       30.23R
RACINE         MOCLDY    50  36  58 N3        30.22R
6HR MIN TEMP:  49; 6HR MAX TEMP:  54;

BURLINGTON     CLOUDY    51  37  59 CALM      30.20S
6HR MIN TEMP:  49; 6HR MAX TEMP:  60;

KENOSHA        CLOUDY    51  38  60 NE6       30.19F
6HR MIN TEMP:  48; 6HR MAX TEMP:  58;

FOND DU LAC    CLOUDY    53  34  48 E7        30.23R
6HR MIN TEMP:  53; 6HR MAX TEMP:  64;

SHEBOYGAN      CLOUDY    47  36  65 NE6       30.23R
6HR MIN TEMP:  44; 6HR MAX TEMP:  54;

WEST BEND      CLOUDY    50  34  53 NE3       30.23R
JUNEAU         CLOUDY    54  37  53 NE6       30.22S
6HR MIN TEMP:  53; 6HR MAX TEMP:  64;

$$

LSZ147-162-050700-
LAKE SUPERIOR

STATION/POSITION TIME  TEMP    WIND        PRES    WAVE
                       AIR SEA DIR/SP/G            HT/PER
                 (UTC) (F)     (DEG/KT/KT) (MB)    (FT/S)
W MID LAKE BUOY  0550   43 35  110/  2/  2 1025.3R   0
DEVILS ISLAND    0600   51     100/  7/  8 1025.0R
PORT WING        0500   45     330/  4/  5 1024.0R
SAXON HARBOR     0500   42        CALM     1023.7R
$$

LMZ867-665-643>646-050700-
LAKE MICHIGAN

STATION/POSITION TIME  TEMP    WIND        PRES    WAVE
                       AIR SEA DIR/SP/G            HT/PER



USA.gov is the U.S. government's official web portal to all federal, state and local government web resources and services.